軌道要素
Epoch 2016 May 12.0 TT = JDT 2457520.5
T 2016 Apr. 30.53460 TT Rudenko
q 3.3022572 (2000.0) P Q
n 0.11130473 Peri. 208.28063 +0.86435310 +0.49489148
a 4.2801629 Node 121.78323 -0.43932174 +0.82952187
e 0.2284739 Incl. 6.03085 -0.24472460 +0.25879701
P 8.86
From 142 observations 2007 Aug. 16-2020 Feb. 25, mean residual 0".5.
|